DW8567 Weather Reports


time (UTC)temp
C
wind
direction
speed
KPH
gust
KPH
rain 1hr
cm
rain 24hr
cm
rain mn
cm
humidity
%
barometer
mb
20260505165545 26 227 14.5 33.8 0.00 0.00 0.00 42 1010.6
20260505165316 26 200 14.5 32.2 0.00 0.00 0.00 42 1010.6
20260505164544 26 193 14.5 32.2 0.00 0.00 0.00 42 1010.6
20260505164043 26 174 16.1 32.2 0.00 0.00 0.00 42 1010.5
20260505163542 26 200 14.5 32.2 0.00 0.00 0.00 41 1010.8
20260505163041 26 205 14.5 33.8 0.00 0.00 0.00 43 1010.8
20260505162540 25 200 16.1 33.8 0.00 0.00 0.00 43 1010.8
20260505162039 25 171 16.1 29.0 0.00 0.00 0.00 44 1010.8
20260505161540 25 209 14.5 27.4 0.00 0.00 0.00 44 1011.0
20260505161040 25 212 12.9 27.4 0.00 0.00 0.00 44 1011.0
20260505160536 25 200 14.5 27.4 0.00 0.00 0.00 44 1011.1
20260505153037 24 186 14.5 27.4 0.00 0.00 0.00 46 1011.4
20260505152539 23 210 14.5 27.4 0.00 0.00 0.00 47 1011.2
20260505152032 23 219 14.5 29.0 0.00 0.00 0.00 46 1011.3
20260505151532 23 225 12.9 29.0 0.00 0.00 0.00 48 1011.3
20260505151033 23 196 12.9 25.7 0.00 0.00 0.00 47 1011.2
20260505150533 23 190 12.9 24.1 0.00 0.00 0.00 49 1011.3
20260505140529 22 204 9.7 17.7 0.00 0.00 0.00 51 1011.7
20260505130258 20 215 11.3 24.1 0.00 0.00 0.00 57 1011.7
20260505125026 19 216 9.7 16.1 0.00 0.00 0.00 58 1011.7
20260505124525 19 221 9.7 19.3 0.00 0.00 0.00 59 1011.8
20260505124025 19 242 11.3 22.5 0.00 0.00 0.00 59 1011.8
20260505123523 18 217 11.3 22.5 0.00 0.00 0.00 59 1011.7
20260505123023 18 236 11.3 24.1 0.00 0.00 0.00 60 1011.6
20260505122521 18 252 11.3 24.1 0.00 0.00 0.00 59 1011.7
20260505122020 18 229 9.7 22.5 0.00 0.00 0.00 60 1011.6
20260505121520 18 227 9.7 22.5 0.00 0.00 0.00 61 1011.6
20260505121022 18 203 9.7 22.5 0.00 0.00 0.00 62 1011.7
20260505120518 18 218 11.3 22.5 0.00 0.00 0.00 63 1011.7
20260505120252 18 247 11.3 22.5 0.00 0.00 0.00 63 1011.6
20260505115518 17 226 11.3 22.5 0.00 0.00 0.00 64 1011.5
20260505115251 17 221 11.3 22.5 0.00 0.00 0.00 65 1011.4
20260505114519 17 199 9.7 19.3 0.00 0.00 0.00 66 1011.5
20260505114017 17 216 11.3 20.9 0.00 0.00 0.00 66 1011.5
20260505113518 17 235 11.3 20.9 0.00 0.00 0.00 67 1011.4
20260505113016 17 234 11.3 20.9 0.00 0.00 0.00 67 1011.4
20260505112746 17 202 11.3 20.9 0.00 0.00 0.00 67 1011.3
20260505112016 17 224 9.7 19.3 0.00 0.00 0.00 67 1011.3
20260505111509 17 190 9.7 19.3 0.00 0.00 0.00 67 1011.2
20260505111003 17 225 8.0 17.7 0.00 0.00 0.00 68 1011.3
20260505110455 17 205 8.0 20.9 0.00 0.00 0.00 68 1011.2
20260505101354 17 206 11.3 25.7 0.00 0.00 0.00 68 1010.9
20260505100848 17 215 12.9 22.5 0.00 0.00 0.00 68 1010.8
20260505100342 17 207 11.3 25.7 0.00 0.00 0.00 68 1010.7
20260505095837 17 213 9.7 25.7 0.00 0.00 0.00 68 1010.6
20260505095330 17 221 9.7 25.7 0.00 0.00 0.00 68 1010.6
20260505094825 17 171 9.7 24.1 0.00 0.00 0.00 68 1010.6
20260505094319 16 196 9.7 19.3 0.00 0.00 0.00 68 1011.0
20260505093813 16 188 9.7 16.1 0.00 0.00 0.00 69 1010.6
20260505093307 16 186 8.0 16.1 0.00 0.00 0.00 70 1010.6
20260505092800 16 192 6.4 14.5 0.00 0.00 0.00 70 1010.7
20260505092527 16 199 6.4 14.5 0.00 0.00 0.00 70 1010.8
20260505091748 16 229 6.4 12.9 0.00 0.00 0.00 70 1010.8
20260505091242 16 211 6.4 12.9 0.00 0.00 0.00 70 1010.7
20260505090736 16 213 8.0 14.5 0.00 0.00 0.00 71 1010.6
20260505090234 16 202 6.4 14.5 0.00 0.00 0.00 71 1010.7
20260505090228 16 246 4.8 12.9 0.00 0.00 0.00 72 1010.8
20260505085219 16 221 4.8 12.9 0.00 0.00 0.00 72 1010.7
20260505084712 16 220 4.8 12.9 0.00 0.00 0.00 71 1010.6
20260505084207 16 202 4.8 11.3 0.00 0.00 0.00 71 1010.5
20260505083700 16 201 6.4 12.9 0.00 0.00 0.00 71 1010.5
20260505083154 16 207 4.8 12.9 0.00 0.00 0.00 71 1010.5
20260505082648 16 190 4.8 11.3 0.00 0.00 0.00 71 1010.6
20260505082142 16 209 4.8 11.3 0.00 0.00 0.00 70 1010.6
20260505081636 16 213 8.0 16.1 0.00 0.00 0.00 70 1010.6
20260505081130 16 225 8.0 16.1 0.00 0.00 0.00 70 1010.6
20260505080627 16 203 8.0 16.1 0.00 0.00 0.00 69 1010.6
20260505080621 16 214 8.0 14.5 0.00 0.00 0.00 69 1010.7
20260505075612 16 209 8.0 16.1 0.00 0.00 0.00 69 1010.7
20260505075107 16 187 9.7 17.7 0.00 0.00 0.00 69 1010.7
20260505074601 16 209 9.7 17.7 0.00 0.00 0.00 68 1010.7
20260505074054 16 213 11.3 19.3 0.00 0.00 0.00 68 1010.6
20260505073548 16 242 9.7 19.3 0.00 0.00 0.00 68 1010.6
20260505073042 16 196 9.7 19.3 0.00 0.00 0.00 68 1010.6
20260505072536 16 196 9.7 17.7 0.00 0.00 0.00 68 1010.7
20260505072030 16 213 9.7 19.3 0.00 0.00 0.00 68 1010.6
20260505071525 16 199 11.3 19.3 0.00 0.00 0.00 67 1010.7
20260505071247 16 219 9.7 19.3 0.00 0.00 0.00 67 1010.6
20260505071122 16 225 11.3 17.7 0.00 0.00 0.00 67 1010.6
20260505070005 16 202 8.0 19.3 0.00 0.00 0.00 67 1010.7
20260505065500 16 196 6.4 12.9 0.00 0.00 0.00 66 1010.7
20260505065227 16 213 8.0 14.5 0.00 0.00 0.00 66 1010.5
20260505064448 16 189 9.7 20.9 0.00 0.00 0.00 66 1010.5
20260505064213 16 208 9.7 20.9 0.00 0.00 0.00 66 1010.4
20260505063436 16 208 8.0 14.5 0.00 0.00 0.00 66 1010.4
20260505062930 16 200 8.0 14.5 0.00 0.00 0.00 66 1010.4
20260505062424 16 224 8.0 16.1 0.00 0.00 0.00 66 1010.4
20260505062150 16 202 6.4 16.1 0.00 0.00 0.00 65 1010.5
20260505061412 16 203 4.8 11.3 0.00 0.00 0.00 65 1010.6
20260505060906 16 214 4.8 11.3 0.00 0.00 0.00 65 1010.5
20260505060632 16 196 4.8 9.7 0.00 0.00 0.00 64 1010.5
20260505060125 16 193 4.8 9.7 0.00 0.00 0.00 64 1010.5
20260505055348 16 208 4.8 14.5 0.00 0.00 0.00 64 1010.6
20260505055113 16 202 4.8 14.5 0.00 0.00 0.00 64 1010.6
20260505054607 16 184 6.4 14.5 0.00 0.00 0.00 64 1010.6
20260505053830 16 196 6.4 14.5 0.00 0.00 0.00 64 1010.7
20260505053556 16 202 6.4 12.9 0.00 0.00 0.00 64 1010.8
20260505052818 16 218 6.4 12.9 0.00 0.00 0.00 64 1010.7
20260505052312 16 205 6.4 11.3 0.00 0.00 0.00 64 1010.8
20260505051807 16 208 4.8 11.3 0.00 0.00 0.00 63 1010.8
20260505051301 16 202 4.8 11.3 0.00 0.00 0.00 63 1010.9
20260505050757 16 194 4.8 11.3 0.00 0.00 0.00 63 1010.8
20260505050750 16 215 6.4 12.9 0.00 0.00 0.00 63 1010.8
20260505041654 16 178 6.4 14.5 0.00 0.00 0.00 64 1010.6
20260505041420 16 167 6.4 9.7 0.00 0.00 0.00 64 1010.8
20260505040642 16 186 4.8 9.7 0.00 0.00 0.00 64 1010.8
20260505040409 16 178 6.4 9.7 0.00 0.00 0.00 63 1010.8
20260505035629 16 159 6.4 9.7 0.00 0.00 0.00 63 1010.8
20260505035124 16 184 4.8 9.7 0.00 0.00 0.00 62 1010.8
20260505034617 16 171 4.8 9.7 0.00 0.00 0.00 61 1010.8
20260505034112 16 178 4.8 8.0 0.00 0.00 0.00 61 1010.8
20260505033836 16 178 4.8 9.7 0.00 0.00 0.00 60 1010.8
20260505033059 16 161 3.2 9.7 0.00 0.00 0.00 59 1010.9
20260505032553 16 184 3.2 8.0 0.00 0.00 0.00 58 1010.9
20260505032318 16 184 3.2 9.7 0.00 0.00 0.00 57 1011.0
20260505031541 16 136 4.8 9.7 0.00 0.00 0.00 56 1010.7
20260505031035 17 169 4.8 9.7 0.00 0.00 0.00 56 1010.9
20260505030530 17 179 4.8 9.7 0.00 0.00 0.00 55 1010.9
20260505030029 17 179 4.8 9.7 0.00 0.00 0.00 54 1011.0
20260505025525 17 182 4.8 9.7 0.00 0.00 0.00 54 1010.9
20260505025026 17 165 4.8 9.7 0.00 0.00 0.00 53 1011.0
20260505024525 17 190 4.8 9.7 0.00 0.00 0.00 53 1011.0
20260505024025 17 169 4.8 9.7 0.00 0.00 0.00 52 1011.1
20260505023525 17 187 4.8 9.7 0.00 0.00 0.00 51 1011.1
20260505023027 17 182 4.8 9.7 0.00 0.00 0.00 51 1011.1
20260505022754 17 181 4.8 12.9 0.00 0.00 0.00 50 1011.1
20260505022023 17 179 4.8 12.9 0.00 0.00 0.00 50 1011.1
20260505021523 17 154 4.8 12.9 0.00 0.00 0.00 50 1011.1
20260505021021 17 168 6.4 12.9 0.00 0.00 0.00 49 1011.1
20260505020520 18 155 4.8 11.3 0.00 0.00 0.00 49 1011.1
20260505020018 18 169 4.8 11.3 0.00 0.00 0.00 48 1011.1
20260505015518 18 169 3.2 8.0 0.00 0.00 0.00 48 1011.1
20260505015017 18 169 3.2 8.0 0.00 0.00 0.00 47 1011.1
20260505014516 18 169 4.8 9.7 0.00 0.00 0.00 47 1011.0
20260505014014 18 169 6.4 9.7 0.00 0.00 0.00 47 1011.0
20260505013516 18 158 6.4 12.9 0.00 0.00 0.00 46 1011.0
20260505013009 18 178 6.4 12.9 0.00 0.00 0.00 46 1011.0
20260505012504 18 161 6.4 11.3 0.00 0.00 0.00 46 1010.9
20260505011957 19 171 6.4 12.9 0.00 0.00 0.00 45 1010.9
20260505011723 19 144 6.4 11.3 0.00 0.00 0.00 45 1010.7
20260505010949 19 151 4.8 11.3 0.00 0.00 0.00 44 1010.7
20260505010942 19 197 4.8 11.3 0.00 0.00 0.00 44 1010.6
20260505005933 19 178 4.8 11.3 0.00 0.00 0.00 44 1010.7
20260505005427 20 181 6.4 14.5 0.00 0.00 0.00 43 1010.5
20260505005152 20 199 6.4 14.5 0.00 0.00 0.00 43 1010.4
20260505004647 20 190 4.8 11.3 0.00 0.00 0.00 43 1010.4
20260505003910 20 175 6.4 14.5 0.00 0.00 0.00 42 1010.4
20260505003635 20 175 6.4 14.5 0.00 0.00 0.00 42 1010.4
20260505002859 20 0 6.4 12.9 0.00 0.00 0.00 41 1010.2
20260505002352 20 185 8.0 14.5 0.00 0.00 0.00 40 1010.2
20260505001848 20 184 8.0 14.5 0.00 0.00 0.00 40 1010.2
20260505001842 21 171 8.0 14.5 0.00 0.00 0.00 39 1010.1
20260505000836 21 184 8.0 16.1 0.00 0.00 0.00 39 1010.1
20260505000830 21 215 9.7 17.7 0.00 0.00 0.00 38 1010.1
20260505000054 21 182 9.7 17.7 0.00 0.00 0.00 38 1010.0
20260504235315 21 199 9.7 22.5 0.00 0.00 0.00 38 1010.0
20260504234809 21 199 9.7 22.5 0.00 0.00 0.00 37 1010.0
20260504234303 21 219 11.3 25.7 0.00 0.00 0.00 37 1009.8
20260504233759 21 238 12.9 25.7 0.00 0.00 0.00 37 1009.9
20260504233251 21 188 11.3 25.7 0.00 0.00 0.00 37 1009.7
20260504232745 21 248 9.7 20.9 0.00 0.00 0.00 37 1009.8
20260504232241 21 235 11.3 19.3 0.00 0.00 0.00 36 1009.7
20260504231733 21 194 12.9 27.4 0.00 0.00 0.00 36 1009.7
20260504231227 21 217 12.9 25.7 0.00 0.00 0.00 35 1009.7
20260504230722 22 224 12.9 27.4 0.00 0.00 0.00 35 1009.7
20260504230215 22 194 12.9 25.7 0.00 0.00 0.00 34 1009.6
20260504225941 22 206 11.3 25.7 0.00 0.00 0.00 35 1009.7
20260504225434 22 212 12.9 27.4 0.00 0.00 0.00 35 1009.8
20260504224657 22 180 14.5 27.4 0.00 0.00 0.00 34 1009.8
20260504224151 22 218 14.5 27.4 0.00 0.00 0.00 34 1009.8
20260504223646 22 207 14.5 27.4 0.00 0.00 0.00 34 1009.8
20260504223140 22 247 14.5 27.4 0.00 0.00 0.00 34 1009.8
20260504222634 22 232 14.5 30.6 0.00 0.00 0.00 33 1009.8
20260504222127 22 220 14.5 30.6 0.00 0.00 0.00 33 1009.8
20260504221852 22 217 12.9 29.0 0.00 0.00 0.00 33 1009.8
20260504221115 22 199 12.9 29.0 0.00 0.00 0.00 33 1009.8
20260504220609 22 208 12.9 32.2 0.00 0.00 0.00 32 1009.8
20260504215557 22 217 11.3 32.2 0.00 0.00 0.00 32 1009.9
20260504215323 22 255 11.3 32.2 0.00 0.00 0.00 32 1009.9
20260504214546 22 196 11.3 30.6 0.00 0.00 0.00 33 1010.0
20260504214040 22 226 12.9 30.6 0.00 0.00 0.00 32 1010.0
20260504213533 22 234 14.5 32.2 0.00 0.00 0.00 33 1010.0
20260504213258 22 223 16.1 32.2 0.00 0.00 0.00 32 1010.0
20260504212522 22 184 14.5 29.0 0.00 0.00 0.00 32 1010.0
20260504212016 22 191 14.5 29.0 0.00 0.00 0.00 32 1010.1
20260504211510 22 218 14.5 29.0 0.00 0.00 0.00 32 1009.9
20260504211354 22 228 14.5 30.6 0.00 0.00 0.00 32 1010.0
20260504211245 22 247 14.5 30.6 0.00 0.00 0.00 32 1010.1
20260504205952 22 200 16.1 27.4 0.00 0.00 0.00 32 1010.1
20260504205445 22 190 16.1 29.0 0.00 0.00 0.00 31 1010.0
20260504205211 22 240 17.7 43.5 0.00 0.00 0.00 32 1010.0
20260504204433 22 256 19.3 43.5 0.00 0.00 0.00 31 1010.0
20260504203928 23 234 16.1 32.2 0.00 0.00 0.00 30 1010.1
20260504203423 23 229 14.5 25.7 0.00 0.00 0.00 31 1010.0
20260504202916 23 239 14.5 25.7 0.00 0.00 0.00 31 1010.1
20260504202409 22 236 12.9 30.6 0.00 0.00 0.00 31 1010.1
20260504202134 22 258 14.5 30.6 0.00 0.00 0.00 32 1010.2
20260504201358 22 223 16.1 30.6 0.00 0.00 0.00 31 1010.2
20260504200851 22 199 14.5 29.0 0.00 0.00 0.00 32 1010.2
20260504200350 22 200 16.1 30.6 0.00 0.00 0.00 31 1010.1
20260504195851 22 240 16.1 30.6 0.00 0.00 0.00 32 1010.1
20260504195351 22 165 16.1 35.4 0.00 0.00 0.00 32 1010.3
20260504194848 22 200 16.1 35.4 0.00 0.00 0.00 32 1010.3
20260504194350 22 191 16.1 32.2 0.00 0.00 0.00 31 1010.4
20260504193850 22 211 14.5 29.0 0.00 0.00 0.00 31 1010.5
20260504193349 22 238 14.5 30.6 0.00 0.00 0.00 30 1010.5
20260504192856 22 200 12.9 30.6 0.00 0.00 0.00 31 1010.6
20260504192850 22 243 12.9 30.6 0.00 0.00 0.00 31 1010.6
20260504191851 22 182 14.5 30.6 0.00 0.00 0.00 31 1010.8
20260504191348 22 236 12.9 32.2 0.00 0.00 0.00 32 1010.8
20260504190849 22 236 14.5 32.2 0.00 0.00 0.00 31 1010.9
20260504190349 22 287 14.5 29.0 0.00 0.00 0.00 31 1010.9
20260504190123 22 245 17.7 32.2 0.00 0.00 0.00 32 1010.9
20260504185349 22 211 17.7 33.8 0.00 0.00 0.00 31 1011.0
20260504184850 22 174 17.7 33.8 0.00 0.00 0.00 32 1011.1
20260504184615 22 198 16.1 32.2 0.00 0.00 0.00 32 1011.1
20260504184109 21 220 17.7 33.8 0.00 0.00 0.00 32 1011.2
20260504183335 22 210 16.1 33.8 0.00 0.00 0.00 31 1011.4
20260504182835 21 246 16.1 46.7 0.00 0.00 0.00 32 1011.4
20260504182333 21 221 17.7 46.7 0.00 0.00 0.00 32 1011.4
20260504182104 21 119 17.7 40.2 0.00 0.00 0.00 32 1011.5
20260504181331 21 215 17.7 40.2 0.00 0.00 0.00 31 1011.6
20260504180830 21 190 14.5 30.6 0.00 0.00 0.00 32 1011.5
20260504180332 21 220 16.1 37.0 0.00 0.00 0.00 32 1011.7
20260504175831 21 236 17.7 37.0 0.00 0.00 0.00 31 1011.7
20260504175331 21 204 16.1 38.6 0.00 0.00 0.00 32 1011.8
20260504174832 21 215 14.5 38.6 0.00 0.00 0.00 33 1011.8
20260504174331 21 197 12.9 40.2 0.00 0.00 0.00 33 1011.8
20260504174104 21 171 16.1 40.2 0.00 0.00 0.00 34 1011.9
20260504173329 21 214 16.1 35.4 0.00 0.00 0.00 32 1012.0
20260504172830 21 150 12.9 30.6 0.00 0.00 0.00 33 1011.9
20260504172600 21 244 12.9 38.6 0.00 0.00 0.00 33 1012.2
20260504171829 21 180 12.9 38.6 0.00 0.00 0.00 35 1012.2
20260504171329 21 234 11.3 29.0 0.00 0.00 0.00 34 1012.3
20260504170829 21 244 14.5 32.2 0.00 0.00 0.00 34 1012.4
20260504170328 21 209 12.9 32.2 0.00 0.00 0.00 33 1012.6